Tracking 18851 objects as of 24-Nov-2017
HD Live streaming from Space Station
objects crossing your sky now

TRANSIT 13 DEB

Track TRANSIT 13 DEB now!
10-day predictions


NORAD ID: 42667
Int'l Code: 1966-041J
Perigee: 754.2 km
Apogee: 840.1 km
Inclination: 90.1 °
Period: 100.7 minutes
Semi major axis: 7168 km
RCS: Unknown
Launch date: May 19, 1966
Source: United States (US)
Launch site: AIR FORCE WESTERN TEST RANGE (AFWTR)

Note: This is SATELLITE DEBRIS
aabbcc
Your satellite tracking list
Your tracking list is empty




NASA's NSSDC Master Catalog

Two Line Element Set (TLE):
1 42667U 66041J   17328.63875180  .00012393  00000-0  46552-2 0  9993
2 42667  90.1280  19.0782 0059916 182.9151 177.1705 14.30528133158339
Source of the keplerian elements: AFSPC